Total_Precipitation_Accumulation
0.07 0.14 0.20 0.22 0.18 0.17 0.14 0.14 0.21 0.29 0.44 0.57 0.66 0.67 0.64 0.67 0.71 0.68 0.73 0.75 0.75 0.79 0.72 0.69 0.70 0.71 0.72 0.76 0.78 0.80 0.98 1.14 1.31 1.48 1.55 1.61 1.67 1.69 1.75 1.78 1.69 1.79 1.84 1.81
0.09 0.14 0.16 0.17 0.20 0.15 0.11 0.11 0.17 0.29 0.47 0.59 0.59 0.68 0.71 0.66 0.64 0.69 0.77 0.80 0.89 0.89 0.85 0.89 0.85 0.84 0.86 0.88 0.95 1.10 1.25 1.42 1.51 1.59 1.64 1.59 1.59 1.62 1.78 1.85 1.91 2.03 2.06 2.05
0.17 0.19 0.21 0.24 0.22 0.16 0.14 0.17 0.24 0.32 0.47 0.59 0.67 0.80 0.89 0.88 0.80 0.81 0.92 0.95 1.06 1.12 1.09 1.10 1.05 1.06 1.17 1.16 1.25 1.43 1.58 1.75 1.78 1.74 1.76 1.74 1.79 1.82 1.84 1.98 2.11 2.13 2.10 2.12
0.25 0.30 0.42 0.34 0.25 0.22 0.22 0.24 0.28 0.39 0.54 0.67 0.80 0.84 0.99 1.07 1.03 0.95 0.92 0.99 1.11 1.19 1.18 1.13 1.15 1.22 1.45 1.58 1.60 1.72 1.83 1.93 2.02 2.05 2.11 2.17 2.27 2.28 2.32 2.37 2.42 2.35 2.26 2.28
0.39 0.48 0.48 0.41 0.36 0.32 0.34 0.45 0.45 0.56 0.80 0.94 0.96 1.15 1.33 1.24 1.10 1.08 1.11 1.11 1.27 1.26 1.23 1.24 1.41 1.47 1.55 1.67 1.71 1.87 2.06 2.20 2.28 2.34 2.37 2.41 2.44 2.57 2.71 2.85 2.89 2.78 2.72 2.75
0.47 0.58 0.66 0.63 0.49 0.45 0.58 1.09 0.92 0.90 0.97 0.96 1.07 1.51 1.54 1.19 1.05 1.12 1.15 1.26 1.41 1.44 1.39 1.46 1.72 1.79 1.89 1.96 2.02 2.09 2.19 2.37 2.56 2.68 2.71 2.70 2.78 2.93 3.10 3.26 3.29 3.28 3.28 3.29
0.56 0.65 0.74 0.67 0.56 0.64 1.20 1.65 1.35 1.22 1.18 1.21 1.41 1.47 1.44 1.28 1.13 1.09 1.13 1.24 1.40 1.45 1.44 1.51 1.71 1.91 2.19 2.34 2.39 2.39 2.45 2.58 2.71 2.82 2.95 3.01 3.11 3.21 3.38 3.51 3.48 3.42 3.37 3.35
0.89 1.05 1.12 0.74 0.74 1.14 1.48 1.31 1.42 1.57 1.60 1.53 1.52 1.35 1.26 1.24 1.27 1.24 1.23 1.27 1.35 1.47 1.54 1.64 1.77 2.02 2.25 2.43 2.59 2.69 2.69 2.82 2.87 2.88 2.79 2.79 3.04 3.25 3.47 3.69 3.65 3.57 3.60 3.47
1.26 1.40 1.25 0.97 1.06 1.13 1.11 1.26 1.37 1.47 1.62 1.67 1.62 1.62 1.48 1.44 1.44 1.39 1.31 1.24 1.26 1.34 1.46 1.56 1.66 1.87 2.26 2.40 2.46 2.54 2.65 2.71 2.82 2.86 2.90 2.97 3.17 3.34 3.54 3.65 3.60 3.49 3.49 3.41
1.45 1.51 1.39 1.30 1.31 1.34 1.34 1.40 1.41 1.43 1.53 1.62 1.65 1.73 1.65 1.51 1.37 1.26 1.20 1.18 1.24 1.32 1.42 1.50 1.46 1.61 1.83 2.06 2.20 2.24 2.28 2.33 2.34 2.46 2.63 2.88 3.20 3.29 3.35 3.41 3.43 3.40 3.30 3.18
1.82 1.92 1.89 1.75 1.73 1.70 1.61 1.65 1.71 1.64 1.60 1.64 1.55 1.54 1.54 1.36 1.24 1.21 1.22 1.17 1.23 1.38 1.38 1.41 1.47 1.51 1.56 1.63 1.84 2.00 2.00 2.01 2.12 2.24 2.43 2.65 2.88 3.04 3.02 3.06 3.27 3.17 2.94 2.77
1.94 1.98 2.17 2.13 1.92 1.83 1.71 1.75 1.76 1.71 1.61 1.57 1.52 1.50 1.42 1.30 1.20 1.18 1.16 1.18 1.23 1.32 1.31 1.30 1.40 1.47 1.50 1.60 1.77 1.84 1.79 1.80 1.85 1.91 2.07 2.25 2.41 2.55 2.58 2.36 2.43 2.34 2.20 2.08
1.67 1.80 1.94 2.07 1.95 1.90 1.92 1.85 1.81 1.79 1.67 1.60 1.54 1.48 1.38 1.30 1.21 1.17 1.20 1.28 1.33 1.36 1.36 1.37 1.38 1.45 1.57 1.75 1.93 2.00 1.90 1.84 1.84 1.87 1.98 2.04 2.07 2.13 2.17 2.03 1.89 1.84 1.72 1.58
1.80 2.00 2.31 2.43 2.28 2.06 2.05 1.94 1.82 1.91 1.90 1.83 1.68 1.49 1.35 1.27 1.23 1.28 1.35 1.45 1.50 1.52 1.48 1.48 1.49 1.48 1.50 1.64 1.84 2.12 2.18 2.12 2.00 1.96 1.97 1.90 1.90 1.96 2.06 2.07 1.94 1.72 1.53 1.32
1.97 2.12 2.32 2.36 2.21 2.06 2.01 1.97 1.89 1.91 1.90 1.86 1.79 1.61 1.46 1.36 1.34 1.36 1.39 1.46 1.50 1.52 1.56 1.51 1.50 1.51 1.56 1.65 1.71 1.87 2.10 2.08 1.96 1.96 1.99 2.07 2.03 2.02 2.09 2.10 2.14 2.02 1.74 1.49
1.99 2.05 2.20 2.21 2.17 2.04 1.91 1.93 1.96 1.86 1.76 1.74 1.74 1.66 1.58 1.41 1.30 1.27 1.32 1.50 1.71 1.72 1.64 1.65 1.62 1.56 1.51 1.54 1.59 1.71 1.84 1.90 1.80 1.80 1.81 1.95 2.00 1.98 2.01 2.13 2.14 2.04 1.85 1.58
1.87 2.03 2.22 2.23 2.11 1.92 1.84 1.91 1.92 1.81 1.68 1.53 1.58 1.56 1.50 1.45 1.44 1.47 1.51 1.56 1.73 1.78 1.67 1.67 1.68 1.60 1.51 1.52 1.58 1.58 1.61 1.59 1.55 1.57 1.65 1.79 1.91 1.94 1.91 1.91 1.95 1.89 1.75 1.47
1.54 1.71 1.85 1.90 1.92 1.80 1.69 1.69 1.77 1.74 1.63 1.53 1.54 1.53 1.47 1.54 1.62 1.71 1.77 1.76 1.74 1.66 1.57 1.57 1.46 1.40 1.35 1.35 1.45 1.49 1.56 1.54 1.41 1.41 1.60 1.70 1.76 1.83 1.78 1.71 1.68 1.68 1.57 1.33
1.44 1.51 1.50 1.56 1.57 1.58 1.56 1.53 1.55 1.56 1.50 1.48 1.52 1.57 1.53 1.55 1.67 1.76 1.77 1.83 1.88 1.75 1.49 1.30 1.23 1.11 1.08 1.03 1.03 1.16 1.33 1.43 1.42 1.43 1.54 1.55 1.59 1.73 1.76 1.73 1.72 1.69 1.52 1.36
1.34 1.42 1.44 1.40 1.32 1.38 1.39 1.39 1.42 1.45 1.40 1.44 1.52 1.50 1.49 1.51 1.60 1.75 1.81 1.82 1.83 1.76 1.52 1.30 1.07 0.92 0.84 0.78 0.83 0.89 1.03 1.20 1.24 1.22 1.25 1.34 1.45 1.59 1.67 1.64 1.63 1.68 1.60 1.48
1.29 1.33 1.29 1.29 1.27 1.30 1.28 1.22 1.24 1.35 1.34 1.35 1.45 1.51 1.59 1.57 1.52 1.61 1.79 1.86 1.76 1.67 1.55 1.44 1.17 0.99 0.83 0.79 0.80 0.86 0.98 1.10 1.08 1.03 1.01 1.11 1.26 1.39 1.45 1.42 1.39 1.37 1.32 1.27
1.33 1.26 1.18 1.16 1.18 1.23 1.27 1.23 1.16 1.14 1.17 1.27 1.35 1.43 1.53 1.52 1.52 1.55 1.53 1.69 1.69 1.72 1.56 1.40 1.21 1.07 0.95 0.84 0.74 0.82 0.95 1.02 1.00 0.91 0.87 0.98 1.17 1.28 1.34 1.37 1.39 1.34 1.29 1.26
1.43 1.33 1.24 1.21 1.16 1.17 1.19 1.20 1.16 1.16 1.27 1.42 1.44 1.47 1.53 1.48 1.50 1.63 1.57 1.35 1.31 1.46 1.35 1.23 1.23 1.12 0.96 0.83 0.79 0.86 0.99 1.07 1.04 0.92 0.90 0.99 1.09 1.16 1.23 1.25 1.30 1.34 1.35 1.29
1.45 1.30 1.29 1.33 1.26 1.22 1.35 1.27 1.20 1.26 1.34 1.46 1.42 1.41 1.46 1.46 1.44 1.36 1.32 1.25 1.20 1.28 1.13 1.06 1.03 1.00 0.96 0.90 0.92 0.95 0.99 1.03 1.02 0.95 0.94 0.96 0.96 1.01 1.10 1.20 1.30 1.38 1.34 1.28
1.41 1.34 1.29 1.40 1.46 1.40 1.46 1.33 1.24 1.28 1.30 1.39 1.34 1.32 1.36 1.35 1.43 1.38 1.25 1.14 1.17 1.20 1.11 1.08 1.01 0.99 0.95 1.00 1.07 1.06 1.05 1.05 1.06 1.03 1.02 1.00 1.00 1.03 1.13 1.28 1.40 1.42 1.35 1.33
1.49 1.49 1.44 1.44 1.39 1.33 1.33 1.25 1.18 1.20 1.33 1.54 1.45 1.30 1.37 1.37 1.30 1.33 1.35 1.25 1.20 1.23 1.19 1.14 1.07 1.04 1.02 1.12 1.23 1.22 1.16 1.12 1.11 1.08 1.10 1.17 1.22 1.25 1.31 1.42 1.44 1.37 1.27 1.20
1.49 1.43 1.37 1.32 1.28 1.27 1.29 1.23 1.17 1.21 1.34 1.58 1.55 1.30 1.28 1.28 1.28 1.34 1.34 1.36 1.31 1.28 1.27 1.20 1.11 1.07 1.08 1.13 1.15 1.14 1.15 1.17 1.16 1.11 1.10 1.15 1.23 1.29 1.28 1.31 1.30 1.23 1.17 1.09